Change the Weather History Date:

Saturday, June 7, 2014

  Actual Average Record
Temperature  
Mean Temperature 64 °F 63 °F  
Max Temperature 76 °F 77 °F 93 °F (2001)
Min Temperature 51 °F 49 °F 37 °F (1999)
Degree Days  
Heating Degree Days 1    
Month to date heating degree days 18  
Since 1 June heating degree days 18  
Since 1 July heating degree days 2910  
Cooling Degree Days 0    
Month to date cooling degree days 0  
Year to date cooling degree days 11  
Since 1 June cooling degree days 0  
Growing Degree Days 13 (Base 50)    
Moisture  
Dew Point 53 °F    
Average Humidity 77    
Maximum Humidity 100    
Minimum Humidity 53    
Precipitation  
Precipitation 0.00 in - 0.54 in (1947)
Month to date precipitation 0.00  
Year to date precipitation 8.27  
Since 1 July precipitation 10.47  
Sea Level Pressure  
Sea Level Pressure 29.79 in    
Wind  
Wind Speed 8 mph (SW)    
Max Wind Speed 15 mph    
Max Gust Speed 18 mph    
Visibility 10 miles    
Events      
T = Trace of Precipitation, MM = Missing Value Source: NWS Daily Summary

Daily Weather History Graph

Daily Weather History Graph

Search for Another Location

Airport or City:

Trip Planner

Search our weather history database for the weather conditions in past years. The results will help you decide how hot, cold, wet, or windy it might be!

Date:

Astronomy

Jun. 07, 2014 Rise Set
Actual Time 5:45 AM PDT 8:30 PM PDT
Civil Twilight 5:14 AM PDT 9:01 PM PDT
Nautical Twilight 4:35 AM PDT 9:40 PM PDT
Astronomical Twilight 3:51 AM PDT 10:25 PM PDT
Moon 2:57 PM PDT 2:05 AM PDT
Length of Visible Light 15h 47m
Length of Day
14h 44m
Waxing Gibbous, 69% of the Moon is Illuminated
Jun 7
Waxing Gibbous
Jun 12
Full
Jun 19
Last Quarter
Jun 27
New
Jul 5
First Quarter

Hourly Weather History & Observations

Time (PDT) Temp. Dew Point Humidity Pressure Visibility Wind Dir Wind Speed Gust Speed Precip Events Conditions
12:54 AM 51.1 °F 51.1 °F 100% 29.79 in 10.0 mi WSW 6.9 mph - N/A   Scattered Clouds
1:07 AM 51.1 °F 50.0 °F 96% 29.82 in 10.0 mi WSW 6.9 mph - N/A   Mostly Cloudy
1:46 AM 52.0 °F 51.1 °F 97% 29.82 in 10.0 mi West 8.1 mph - N/A   Overcast
1:54 AM 52.0 °F 51.1 °F 97% 29.79 in 10.0 mi West 8.1 mph - N/A   Overcast
2:54 AM 52.0 °F 51.1 °F 97% 29.79 in 10.0 mi WNW 4.6 mph - N/A   Overcast
3:54 AM 52.0 °F 51.1 °F 97% 29.80 in 10.0 mi WNW 4.6 mph - N/A   Overcast
6:54 AM 52.0 °F 50.0 °F 93% 29.81 in 10.0 mi NW 5.8 mph - N/A   Overcast
7:54 AM 53.1 °F 51.1 °F 93% 29.82 in 9.0 mi West 4.6 mph - N/A   Overcast
8:54 AM 55.0 °F 51.1 °F 86% 29.83 in 8.0 mi WSW 5.8 mph - N/A   Overcast
9:29 AM 55.9 °F 52.0 °F 87% 29.85 in 8.0 mi Variable 5.8 mph - N/A   Overcast
9:54 AM 57.9 °F 52.0 °F 81% 29.82 in 8.0 mi SW 6.9 mph - N/A   Overcast
10:54 AM 61.0 °F 53.1 °F 75% 29.81 in 10.0 mi WSW 8.1 mph - N/A   Clear
11:02 AM 62.1 °F 53.1 °F 72% 29.84 in 10.0 mi SW 6.9 mph - N/A   Scattered Clouds
11:54 AM 64.9 °F 53.1 °F 65% 29.81 in 10.0 mi South 10.4 mph - N/A   Clear
12:54 PM 68.0 °F 54.0 °F 61% 29.80 in 10.0 mi South 8.1 mph - N/A   Clear
1:54 PM 71.1 °F 55.0 °F 57% 29.78 in 10.0 mi SSW 10.4 mph - N/A   Clear
2:54 PM 73.0 °F 55.9 °F 55% 29.77 in 10.0 mi SSW 8.1 mph - N/A   Clear
3:54 PM 75.9 °F 57.0 °F 52% 29.75 in 10.0 mi South 9.2 mph - N/A   Clear
4:54 PM 73.9 °F 57.0 °F 55% 29.73 in 10.0 mi SSW 13.8 mph - N/A   Clear
5:54 PM 71.1 °F 57.0 °F 61% 29.73 in 10.0 mi SSW 13.8 mph - N/A   Clear
6:54 PM 66.9 °F 55.9 °F 68% 29.73 in 10.0 mi South 10.4 mph - N/A   Clear
7:54 PM 63.0 °F 55.9 °F 78% 29.74 in 10.0 mi SSW 6.9 mph - N/A   Clear
8:54 PM 57.9 °F 54.0 °F 87% 29.76 in 10.0 mi South 10.4 mph - N/A   Clear
9:54 PM 57.0 °F 54.0 °F 89% 29.78 in 10.0 mi South 8.1 mph - N/A   Clear
10:54 PM 55.9 °F 54.0 °F 93% 29.78 in 10.0 mi SSW 9.2 mph - N/A   Clear
11:54 PM 55.9 °F 55.0 °F 97% 29.78 in 10.0 mi North - - N/A   Clear